This is the latest recevied weather packets stored in our database for station/object KC8BSD. If no packets are shown the sender has not sent any weather packets the latest 10 day(s).
| Time | Temp. | Humidity | Pressure | Rain* | Wind** | Luminosity | Snow |
|---|---|---|---|---|---|---|---|
| 1777639209 | 6.11° C | 83% | 1014.9 hPa | 0 mm | - | 75 W/m² | - |
| 1777638906 | 5.56° C | 83% | 1015 hPa | 0 mm | - | 66 W/m² | - |
| 1777638601 | 5.56° C | 84% | 1014.8 hPa | 0 mm | - | 66 W/m² | - |
| 1777638298 | 5.56° C | 85% | 1014.7 hPa | 0 mm | - | 64 W/m² | - |
| 1777637994 | 5.56° C | 85% | 1014.7 hPa | 0 mm | - | 65 W/m² | - |
| 1777637691 | 5.56° C | 85% | 1014.8 hPa | 0 mm | - | 61 W/m² | - |
| 1777637388 | 5.56° C | 85% | 1014.5 hPa | 0 mm | - | 56 W/m² | - |
| 1777637084 | 5.56° C | 86% | 1014.6 hPa | 0 mm | - | 38 W/m² | - |
| 1777636780 | 5° C | 86% | 1014.6 hPa | 0 mm | - | 29 W/m² | - |
| 1777636477 | 5° C | 86% | 1014.8 hPa | 0 mm | - | 25 W/m² | - |
| 1777636173 | 5° C | 86% | 1014.6 hPa | 0 mm | - | 19 W/m² | - |
| 1777635867 | 5° C | 86% | 1014.6 hPa | 0 mm | - | 17 W/m² | - |
| 1777635564 | 5.56° C | 86% | 1014.5 hPa | 0 mm | - | 18 W/m² | - |
| 1777635261 | 5° C | 86% | 1014.5 hPa | 0 mm | - | 28 W/m² | - |
| 1777634957 | 5° C | 86% | 1014.7 hPa | 0 mm | - | 19 W/m² | - |
| 1777634655 | 5° C | 86% | 1014.6 hPa | 0 mm | - | 17 W/m² | - |
| 1777634352 | 5° C | 86% | 1014.5 hPa | 0 mm | - | 13 W/m² | - |
| 1777634048 | 5° C | 86% | 1014.5 hPa | 0 mm | - | 13 W/m² | - |
| 1777633744 | 5° C | 86% | 1014.3 hPa | 0 mm | - | 13 W/m² | - |
| 1777633443 | 5° C | 86% | 1014.6 hPa | 0 mm | - | 10 W/m² | - |
| 1777633140 | 5° C | 86% | 1014.4 hPa | 0 mm | - | 6 W/m² | - |
| 1777632836 | 5° C | 87% | 1014.7 hPa | 0 mm | - | 4 W/m² | - |
| 1777632532 | 5° C | 86% | 1014.6 hPa | 0 mm | - | 2 W/m² | - |
| 1777632230 | 5° C | 86% | 1014.6 hPa | 0 mm | - | 2 W/m² | - |
| 1777631927 | 5° C | 86% | 1014.6 hPa | 0 mm | - | 1 W/m² | - |
* Rain latest hour (hover to see other rain measurements)
** Current wind speed in m/s (hover to see current wind gust speed)